Location: Caixon
(43.4106°N, 0.0273°E)
Time: 16:19:52
(UTC+00:00)

Cosmos 2360 - Pass Details

Date: 16 October 2021
Orbit: 844 x 857 km, 70.8° (Epoch: 29 November)

Event Time Altitude Azimuth Distance (km) Brightness Sun altitude
Exits shadow 04:10:11 45° 303° (WNW) 1,156 4.5 -23.4°
Maximum altitude 04:11:40 60° 250° (WSW) 979 4.2 -23.1°
Drops below altitude 10° 04:17:16 10° 172° (S) 2,482 6.6 -22.1°
Sets 04:19:45 0° 168° (SSE) 3,414 7.4 -21.7°
